Theta_e
318 318 318 318 317 317 317 317 318 318 319 320 319 319 319 319 320 320 320 320 321 321 320 320 321 321 314 304 302 314 322 318 316 314 310 307 305 303 299 300 301 298 299 301 302 302 302
318 318 318 317 317 317 317 318 318 318 319 319 319 319 319 319 319 319 320 320 320 320 320 319 320 319 307 297 311 319 314 313 313 311 309 309 306 306 302 300 299 301 301 301 302 301 301
317 317 317 317 317 317 317 317 318 319 319 319 320 319 319 319 319 319 319 320 320 320 319 319 319 312 304 301 312 316 313 311 313 311 307 310 310 305 304 300 303 302 297 299 299 298 298
316 317 318 317 318 318 318 319 319 318 319 320 319 319 319 319 318 318 319 319 319 319 318 318 318 310 300 311 315 311 312 310 312 313 311 312 311 306 304 305 301 296 295 292 297 297 298
318 318 319 319 320 320 320 320 320 320 320 320 319 319 319 318 319 318 318 318 318 317 317 317 310 306 298 313 307 310 311 306 309 311 312 312 309 304 302 297 294 294 290 291 293 297 296
319 320 320 320 320 320 319 319 319 319 319 318 318 317 317 318 318 318 317 315 315 315 313 311 308 300 303 300 306 308 310 309 306 306 305 305 304 300 298 295 288 289 289 291 291 295 294
320 320 318 318 316 316 316 316 316 316 315 315 314 314 316 317 317 318 310 306 303 301 304 301 299 298 300 305 307 305 308 307 305 301 295 298 295 293 293 293 293 292 290 290 293 295 292
316 316 315 315 314 314 313 313 313 313 313 312 312 312 314 316 316 315 309 303 302 303 296 301 300 300 303 304 299 302 308 300 298 295 295 294 293 294 294 294 292 292 290 291 293 293 291
314 314 313 312 312 312 312 312 311 311 312 312 312 312 313 314 315 312 306 304 309 307 297 298 299 299 301 303 298 299 305 300 296 293 293 292 294 294 292 292 291 292 290 290 288 292 293
312 311 311 310 310 309 309 309 309 309 309 310 310 311 312 313 308 307 305 308 309 308 296 295 296 299 301 301 297 303 305 300 296 293 293 293 294 291 292 291 292 289 292 290 290 289 288
310 309 308 308 308 308 308 307 308 308 308 308 308 309 311 312 306 304 306 309 309 305 288 295 296 304 302 297 297 298 303 299 295 293 294 293 291 291 290 292 293 291 294 290 289 290 288
307 307 307 306 307 306 306 307 307 307 307 307 307 308 310 310 309 307 310 309 306 296 286 292 296 295 295 297 297 299 299 301 298 294 294 294 295 293 293 294 293 294 292 289 289 289 286
306 306 306 306 305 305 305 305 306 306 306 306 307 308 309 311 302 309 309 305 294 289 294 291 292 294 293 293 294 295 294 293 292 290 290 290 290 293 294 291 292 292 291 287 284 284 282
307 305 305 305 304 305 305 305 305 305 305 306 306 308 308 309 310 310 307 296 284 289 289 294 293 292 291 293 293 293 292 291 291 290 290 289 288 290 294 292 290 290 289 286 277 279 282
305 306 306 305 305 304 305 305 305 305 306 307 306 306 306 308 309 308 300 289 289 288 291 292 292 290 290 291 292 290 291 291 292 292 289 287 286 291 291 293 292 289 288 290 285 284 282
304 305 304 304 304 304 305 305 305 305 306 306 301 302 303 306 307 305 294 288 287 291 295 293 288 291 287 289 289 289 290 292 291 292 291 289 285 289 290 293 292 291 292 285 286 278 277
304 304 304 303 303 303 304 304 305 305 307 304 301 294 303 305 306 300 289 288 290 294 294 291 290 288 289 288 290 289 289 290 291 290 290 290 288 287 288 288 289 289 288 287 287 285 280
303 303 303 303 303 303 303 304 304 304 306 301 296 289 303 305 295 292 291 289 294 294 295 293 292 291 290 290 289 288 288 290 292 293 289 290 288 284 287 288 290 289 288 289 284 281 284
303 303 304 304 304 303 303 303 304 304 304 298 293 293 303 301 288 289 291 290 291 291 291 291 290 291 291 289 285 287 288 292 292 291 289 290 286 282 284 286 288 287 288 288 287 286 283
304 304 305 305 304 304 303 303 303 303 303 301 294 288 294 296 293 289 287 287 288 294 291 291 288 290 289 288 290 287 287 291 293 291 294 292 287 285 281 284 286 285 287 288 287 283 284
302 303 303 303 303 304 304 303 303 303 302 301 294 287 289 285 288 286 289 289 286 286 289 289 286 285 284 284 286 286 287 289 292 292 290 289 284 285 286 287 286 286 286 287 285 286 283
303 303 303 303 303 303 303 303 303 303 300 294 287 285 287 285 286 286 286 284 283 283 285 285 283 284 284 283 285 282 285 286 286 290 289 289 285 284 282 286 286 284 287 287 287 287 287
302 302 302 302 302 302 302 302 302 302 299 292 293 292 289 283 283 282 282 281 282 283 286 286 283 281 282 283 285 285 287 287 287 286 286 286 286 284 280 285 284 281 285 286 287 288 287
301 301 301 301 301 301 301 301 301 302 299 296 294 292 285 280 281 280 281 281 280 282 280 283 284 282 285 287 287 286 286 285 285 285 286 283 284 284 280 282 274 285 289 288 287 288 290
299 300 299 299 299 299 299 299 300 300 300 298 295 291 286 279 281 281 281 282 282 282 281 282 285 287 287 284 280 279 280 282 284 284 284 285 282 281 278 278 282 285 288 286 285 287 290
298 299 299 299 298 298 298 299 299 299 299 297 296 295 289 282 281 283 281 281 279 280 280 281 286 287 285 281 279 275 274 278 278 281 285 284 284 281 279 276 274 285 289 289 290 282 290
298 298 298 298 298 299 299 299 299 299 298 298 295 296 290 283 286 284 281 281 284 281 279 281 281 281 284 278 274 274 274 280 274 276 279 280 280 277 279 277 282 289 290 290 281 282 291
300 299 299 299 299 299 299 299 299 299 299 297 295 296 291 286 286 287 286 283 283 283 279 281 280 280 280 276 276 277 276 277 275 277 278 279 278 278 279 277 275 289 289 284 286 290 291
298 298 298 298 299 299 299 299 299 299 299 298 292 296 296 288 287 291 290 291 289 288 284 283 282 280 282 279 278 277 274 275 274 270 279 274 281 276 276 281 287 287 288 288 288 288 291
Wind_Speed
12 12 12 12 13 14 14 15 16 16 17 17 17 17 17 16 15 15 14 12 11 10 9 8 9 9 3 2 3 4 5 2 2 1 4 3 4 2 4 3 4 6 4 6 12 16 15
12 11 12 12 13 14 15 15 15 16 16 17 18 18 18 17 16 15 14 13 12 9 8 7 7 8 1 4 2 5 4 1 1 1 2 2 3 2 1 3 5 3 11 19 11 10 10
11 11 12 12 13 13 13 14 14 15 16 17 18 18 18 18 17 16 15 13 12 10 8 6 5 2 2 6 2 4 3 1 1 1 1 2 2 2 2 3 3 7 10 11 8 3 5
10 11 11 12 12 12 13 13 14 15 16 17 18 19 20 20 19 17 15 13 11 9 5 5 3 2 5 2 2 3 3 2 2 1 1 3 2 0 2 4 3 5 5 10 3 3 1
10 10 10 11 12 12 13 13 14 14 16 17 18 19 20 21 20 17 14 11 6 2 3 2 2 3 3 3 3 2 3 2 3 3 2 4 2 1 3 5 3 1 9 12 11 4 3
10 10 11 13 16 17 17 17 18 18 19 20 20 21 22 21 21 16 10 3 2 4 2 2 1 4 3 2 2 3 2 3 2 3 3 2 2 3 3 4 6 11 9 10 14 6 6
13 16 15 16 15 15 16 17 17 18 19 20 22 22 23 22 23 14 4 1 2 3 2 5 2 4 1 1 1 2 2 4 2 3 3 1 5 5 3 3 6 9 11 15 15 5 12
15 15 16 16 17 17 17 18 18 19 20 20 21 22 23 24 25 10 2 5 3 1 9 2 6 6 5 2 3 3 4 4 3 4 2 4 7 1 2 5 6 9 11 11 13 3 9
15 16 16 17 17 18 18 19 20 21 21 21 22 22 23 23 19 3 4 3 1 5 4 3 3 3 1 5 2 4 6 2 3 3 4 5 1 1 4 6 5 7 6 12 11 15 1
14 15 15 16 17 18 18 19 20 21 21 22 23 23 23 26 1 4 2 2 2 3 4 3 3 2 3 1 3 1 2 2 3 4 3 8 1 3 6 5 2 6 2 7 14 7 5
15 15 16 17 17 18 19 20 21 22 22 22 22 22 21 15 5 2 2 3 1 4 5 2 3 3 3 3 1 3 1 1 5 2 3 2 2 3 5 1 3 5 9 7 4 4 4
13 14 16 17 17 19 20 22 22 23 23 24 24 22 19 2 2 2 4 1 3 2 8 2 4 3 4 5 5 3 3 2 2 3 4 8 1 4 3 2 5 9 5 3 3 3 3
14 15 15 16 18 18 21 21 22 24 24 24 26 23 13 2 1 4 4 3 1 4 0 2 3 3 3 4 4 6 5 5 6 2 3 3 4 3 3 4 3 4 6 4 3 3 4
12 14 14 15 17 20 21 23 24 25 25 26 24 17 2 2 5 6 2 3 7 6 8 2 2 2 6 6 4 4 3 5 7 4 3 3 3 5 5 2 3 3 4 1 5 5 7
14 16 17 18 18 20 22 24 25 27 26 27 18 3 2 5 5 2 4 4 6 6 3 2 1 5 5 3 3 4 7 5 5 13 8 4 5 3 1 1 2 4 3 3 4 0 4
12 14 16 17 18 19 22 24 26 28 26 24 5 3 3 8 4 2 3 5 5 3 6 2 5 6 6 3 5 5 5 2 2 4 3 1 6 2 3 2 2 3 6 3 2 4 5
13 14 15 16 18 20 22 24 26 29 29 19 1 1 3 7 2 2 3 4 5 4 3 4 4 6 8 9 7 5 2 1 0 4 2 3 4 3 2 7 4 5 4 3 2 3 4
11 12 14 15 17 19 21 24 26 28 28 8 3 1 5 5 2 0 2 3 5 5 4 4 3 4 4 4 6 6 8 3 1 5 5 4 3 6 7 2 2 2 3 6 3 4 2
10 11 12 14 16 17 20 23 26 27 25 4 3 3 2 3 2 1 4 4 3 7 6 6 4 6 4 4 5 3 2 4 2 3 3 5 5 3 4 3 3 5 4 2 1 2 10
10 12 14 15 14 16 17 21 24 27 25 3 2 3 4 4 2 4 5 3 5 7 0 5 5 4 5 4 3 5 3 2 6 3 3 5 4 10 12 5 2 6 6 8 9 9 12
11 12 13 14 15 16 16 18 22 25 25 3 5 4 4 5 2 8 5 5 8 4 5 9 3 9 6 5 6 4 4 7 2 6 2 4 8 6 11 11 9 12 14 15 17 16 17
12 13 13 13 13 15 16 16 18 21 19 5 4 5 4 4 6 6 3 4 6 6 5 5 4 9 7 5 8 10 7 5 5 5 4 3 5 2 6 9 13 16 18 21 22 23 25
10 12 13 13 14 14 15 16 16 15 10 4 2 1 2 3 4 4 2 4 4 7 4 2 10 13 12 8 12 16 16 15 15 10 6 5 3 4 15 8 10 19 23 24 22 19 16
10 11 12 13 13 14 14 14 15 15 5 1 1 0 2 2 4 4 5 10 8 4 8 12 13 7 6 17 17 16 19 22 23 23 19 16 12 7 11 11 14 9 3 4 11 17 15
11 11 12 12 13 13 13 13 13 14 11 1 2 1 2 4 6 11 4 3 8 6 6 9 7 3 10 11 7 8 5 5 9 15 19 19 15 10 7 10 17 21 20 7 7 9 4
11 12 12 12 12 12 13 13 12 12 13 1 1 1 2 3 4 8 5 6 5 6 4 4 6 10 7 4 4 5 5 3 3 2 2 11 15 12 9 7 7 4 3 5 7 6 7
10 11 12 13 13 13 13 14 14 14 13 3 3 5 2 5 7 6 7 5 4 3 4 5 5 6 2 2 5 6 7 5 5 5 1 5 6 17 15 13 9 4 4 2 7 6 9
13 13 15 15 15 15 15 14 14 15 15 7 4 7 4 4 8 9 9 10 5 6 7 2 5 4 3 4 4 3 4 4 5 4 5 4 5 5 8 8 15 15 3 4 9 13 13
13 14 15 14 15 16 16 15 14 14 14 12 5 3 6 6 4 5 10 20 23 18 8 4 6 4 3 4 3 3 6 5 7 7 3 6 4 7 7 5 15 19 8 7 11 14 11
Wind_Direction
48 40 37 33 32 27 24 20 13 9 6 4 2 359 353 347 339 332 325 319 315 312 312 312 313 319 279 276 250 150 131 91 64 55 47 35 35 348 336 300 282 245 286 279 273 286 281
47 40 40 38 33 27 23 22 16 11 7 4 2 359 352 345 338 329 322 315 309 308 305 305 310 310 244 272 108 152 139 116 61 40 61 23 50 25 295 290 276 320 291 286 289 276 264
47 42 45 36 37 31 28 23 17 12 8 5 0 356 352 346 339 330 322 312 306 303 301 298 307 312 239 266 134 154 160 93 106 345 352 101 122 288 337 276 322 295 299 297 252 272 283
51 48 43 40 35 30 27 20 17 12 6 360 356 352 348 344 341 334 324 311 303 290 277 286 303 246 259 117 150 186 175 134 129 123 99 125 160 287 240 309 235 284 262 328 357 285 184
53 46 38 31 25 19 14 8 3 359 355 354 351 347 344 341 339 335 326 317 310 256 233 230 219 258 259 135 218 131 204 172 133 110 109 120 218 319 210 293 238 238 318 324 315 204 285
31 24 23 30 30 21 12 8 6 3 1 355 351 346 343 339 338 332 328 333 53 134 119 175 96 260 215 187 143 141 142 161 174 145 152 219 223 260 217 302 338 311 312 310 300 323 283
43 41 31 27 21 15 11 9 6 0 358 354 350 345 341 340 338 329 347 239 282 179 190 250 349 306 301 30 210 158 148 155 175 217 260 90 259 261 336 259 287 286 281 292 294 323 315
37 32 27 23 19 13 8 5 3 360 356 352 348 345 339 339 335 323 27 73 125 347 304 242 251 269 250 266 239 169 178 222 229 273 262 224 248 132 295 258 245 261 288 313 302 248 310
40 33 26 21 17 13 10 5 358 354 352 349 345 343 339 338 330 346 48 71 137 170 267 287 219 236 231 190 254 177 190 168 244 243 224 261 17 234 253 288 262 290 263 327 305 317 244
38 31 26 20 15 10 5 2 358 353 352 348 343 341 339 333 328 349 44 11 187 230 296 195 191 169 143 155 258 83 210 257 214 282 273 261 25 256 275 268 271 301 235 310 309 318 332
30 26 19 14 11 10 5 359 354 350 347 342 338 336 337 331 314 301 18 325 196 245 325 125 164 125 138 204 57 165 355 186 245 209 238 296 241 257 281 267 199 288 325 304 277 291 306
31 27 22 17 13 8 2 357 354 349 346 341 334 330 333 182 252 329 316 235 217 276 248 219 146 203 195 182 189 139 184 171 332 261 227 266 266 243 272 270 226 307 277 226 238 283 275
32 26 25 23 12 6 4 359 353 349 345 341 331 325 316 275 1 336 310 240 268 209 351 197 227 193 256 197 212 194 186 194 224 236 235 207 207 206 228 273 175 289 300 323 306 318 308
27 31 25 17 10 9 2 359 354 349 344 339 330 325 40 344 320 311 241 224 219 231 236 94 155 166 244 177 200 187 220 244 218 232 256 236 258 186 159 272 328 30 324 324 295 312 319
24 29 24 20 13 8 2 360 354 350 343 338 328 349 77 5 340 275 225 211 228 226 324 199 147 225 224 218 239 205 228 250 220 192 217 198 246 137 195 151 267 127 216 18 271 114 266
35 30 25 17 11 7 3 1 354 349 344 343 330 323 38 335 347 276 222 238 257 309 332 291 250 217 266 202 223 214 208 159 202 205 320 161 277 156 114 175 115 271 134 204 208 274 280
26 22 18 15 12 6 2 360 357 353 346 344 333 94 3 342 250 183 235 268 303 314 317 285 283 276 268 280 241 220 262 153 148 153 196 185 242 165 195 203 203 164 197 188 288 262 282
24 18 15 13 13 9 2 359 356 357 353 14 341 61 357 320 200 73 221 329 315 311 350 323 288 280 266 271 256 255 255 251 247 170 190 186 235 245 259 82 351 319 267 220 249 175 252
13 9 7 1 0 7 5 0 357 358 4 336 11 322 355 308 301 344 340 300 283 345 346 348 328 5 355 301 298 240 252 8 305 222 205 174 213 252 215 174 131 228 189 209 77 256 243
8 359 357 358 357 358 3 1 359 358 359 339 339 7 7 35 40 352 342 297 329 331 199 5 351 31 346 286 261 288 297 18 329 304 303 191 232 254 263 308 10 257 242 229 245 260 262
3 354 353 1 4 2 1 359 1 359 356 342 15 48 20 343 42 333 309 310 307 328 355 22 84 37 1 299 310 284 6 338 330 1 11 320 259 244 260 271 275 270 270 261 245 251 257
7 2 4 4 9 6 8 4 2 8 357 66 45 354 347 319 317 305 302 20 23 345 345 334 5 343 328 284 309 303 334 294 277 338 2 12 280 323 270 270 269 267 262 256 257 255 258
12 8 9 11 10 7 5 5 7 19 13 43 47 79 291 332 334 299 42 3 349 343 252 13 335 314 298 323 315 291 276 263 260 268 278 284 267 281 270 301 305 278 247 245 251 255 251
5 2 3 4 2 2 1 2 4 12 62 47 59 306 307 291 298 299 294 306 294 296 278 301 308 281 346 325 306 274 253 250 246 242 230 241 231 241 275 289 260 264 352 286 264 264 246
350 348 351 347 349 348 345 345 353 352 17 336 149 234 240 268 279 283 244 261 300 289 269 277 284 314 326 318 299 296 247 237 236 234 233 225 233 246 244 228 273 291 279 222 195 285 181
344 343 339 338 338 339 336 337 341 341 337 333 218 152 224 282 244 230 286 274 276 300 288 250 304 311 311 264 253 258 268 330 263 206 337 215 217 225 220 238 254 72 352 315 154 250 57
330 330 325 327 328 330 328 326 325 323 322 337 282 182 195 258 263 219 237 253 217 252 261 296 314 309 229 263 251 258 253 296 265 259 196 141 187 216 224 241 267 329 301 165 269 9 356
326 323 319 318 318 322 319 319 315 313 314 311 282 196 209 253 267 230 233 242 246 238 246 58 298 194 243 244 259 285 279 9 290 331 311 271 218 209 223 237 246 18 342 301 345 318 336
330 331 328 321 314 313 311 312 310 309 301 301 278 217 225 246 286 258 235 242 244 240 255 216 245 249 276 266 250 285 283 306 303 286 303 281 268 326 311 286 313 316 309 315 322 310 329